iso_date,epoch_date,Year,Hour,Min,DOY,POS_DOY,Lat,Lon,BP,Ts,Ta,has_bp,has_ts,has_ta,BuoyID,Buoy_Type,Buoy_Owner,Logistics,Hemisphere
2021-08-17T09:59:02Z,1629194342,2021,9,59,229.416,229.416,69.35554,-50.94971,-999.00,-999.00,-999.0,no,no,no,4434724,SPIT,USIABP,ICE-PPR<br>DiskoBay,North
2021-08-17T10:28:59Z,1629196140,2021,10,29,229.4368,229.4368,69.3625,-51.16772,-999.00,-999.00,-999.0,no,no,no,4434724,SPIT,USIABP,ICE-PPR<br>DiskoBay,North
2021-08-17T10:58:56Z,1629197937,2021,10,59,229.4576,229.4576,69.37255,-51.40482,-999.00,-999.00,-999.0,no,no,no,4434724,SPIT,USIABP,ICE-PPR<br>DiskoBay,North
2021-08-17T11:29:02Z,1629199742,2021,11,29,229.4785,229.4785,69.37651,-51.39066,-999.00,-999.00,-999.0,no,no,no,4434724,SPIT,USIABP,ICE-PPR<br>DiskoBay,North
2021-08-17T11:58:59Z,1629201540,2021,11,59,229.4993,229.4993,69.3923,-51.4201,-999.00,-999.00,-999.0,no,no,no,4434724,SPIT,USIABP,ICE-PPR<br>DiskoBay,North
2021-08-17T16:27:59Z,1629217679,2021,16,28,229.6861,229.6861,69.40264,-51.45508,-999.00,-999.00,-999.0,no,no,no,4434724,SPIT,USIABP,ICE-PPR<br>DiskoBay,North
2021-08-17T23:55:58Z,1629244558,2021,23,56,229.9972,229.9972,69.40289,-51.45642,-999.00,-999.00,-999.0,no,no,no,4434724,SPIT,USIABP,ICE-PPR<br>DiskoBay,North
2021-08-18T11:24:00Z,1629285840,2021,11,24,230.475,230.475,69.40491,-51.46136,-999.00,-999.00,-999.0,no,no,no,4434724,SPIT,USIABP,ICE-PPR<br>DiskoBay,North
2021-08-18T15:52:59Z,1629301980,2021,15,53,230.6618,230.6618,69.40492,-51.4613,-999.00,-999.00,-999.0,no,no,no,4434724,SPIT,USIABP,ICE-PPR<br>DiskoBay,North
2021-08-18T16:21:56Z,1629303716,2021,16,22,230.6819,230.6819,69.40492,-51.46133,-999.00,-999.00,-999.0,no,no,no,4434724,SPIT,USIABP,ICE-PPR<br>DiskoBay,North
2021-08-18T16:52:01Z,1629305522,2021,16,52,230.7028,230.7028,69.40492,-51.46133,-999.00,-999.00,-999.0,no,no,no,4434724,SPIT,USIABP,ICE-PPR<br>DiskoBay,North
2021-08-18T18:22:01Z,1629310922,2021,18,22,230.7653,230.7653,69.40506,-51.46136,-999.00,-999.00,-999.0,no,no,no,4434724,SPIT,USIABP,ICE-PPR<br>DiskoBay,North
2021-08-18T22:21:56Z,1629325316,2021,22,22,230.9319,230.9319,69.40939,-51.47171,-999.00,-999.00,-999.0,no,no,no,4434724,SPIT,USIABP,ICE-PPR<br>DiskoBay,North
2021-08-18T22:52:01Z,1629327122,2021,22,52,230.9528,230.9528,69.41098,-51.47645,-999.00,-999.00,-999.0,no,no,no,4434724,SPIT,USIABP,ICE-PPR<br>DiskoBay,North
2021-08-18T23:21:59Z,1629328919,2021,23,22,230.9736,230.9736,69.41257,-51.48169,-999.00,-999.00,-999.0,no,no,no,4434724,SPIT,USIABP,ICE-PPR<br>DiskoBay,North
2021-08-18T23:51:04Z,1629330664,2021,23,51,230.9938,230.9938,69.41409,-51.48724,-999.00,-999.00,-999.0,no,no,no,4434724,SPIT,USIABP,ICE-PPR<br>DiskoBay,North
2021-08-19T00:21:01Z,1629332461,2021,0,21,231.0146,231.0146,69.41555,-51.49326,-999.00,-999.00,-999.0,no,no,no,4434724,SPIT,USIABP,ICE-PPR<br>DiskoBay,North
2021-08-19T00:50:58Z,1629334259,2021,0,51,231.0354,231.0354,69.41691,-51.49896,-999.00,-999.00,-999.0,no,no,no,4434724,SPIT,USIABP,ICE-PPR<br>DiskoBay,North
2021-08-19T01:20:55Z,1629336056,2021,1,21,231.0562,231.0562,69.41773,-51.5052,-999.00,-999.00,-999.0,no,no,no,4434724,SPIT,USIABP,ICE-PPR<br>DiskoBay,North
2021-08-19T01:51:01Z,1629337861,2021,1,51,231.0771,231.0771,69.41843,-51.51129,-999.00,-999.00,-999.0,no,no,no,4434724,SPIT,USIABP,ICE-PPR<br>DiskoBay,North
2021-08-19T02:20:58Z,1629339659,2021,2,21,231.0979,231.0979,69.41894,-51.51779,-999.00,-999.00,-999.0,no,no,no,4434724,SPIT,USIABP,ICE-PPR<br>DiskoBay,North
2021-08-19T02:50:03Z,1629341404,2021,2,50,231.1181,231.1181,69.41911,-51.52451,-999.00,-999.00,-999.0,no,no,no,4434724,SPIT,USIABP,ICE-PPR<br>DiskoBay,North
2021-08-19T03:20:00Z,1629343201,2021,3,20,231.1389,231.1389,69.41925,-51.53207,-999.00,-999.00,-999.0,no,no,no,4434724,SPIT,USIABP,ICE-PPR<br>DiskoBay,North
2021-08-19T03:49:58Z,1629344998,2021,3,50,231.1597,231.1597,69.41946,-51.53958,-999.00,-999.00,-999.0,no,no,no,4434724,SPIT,USIABP,ICE-PPR<br>DiskoBay,North
2021-08-19T04:20:03Z,1629346804,2021,4,20,231.1806,231.1806,69.41946,-51.54731,-999.00,-999.00,-999.0,no,no,no,4434724,SPIT,USIABP,ICE-PPR<br>DiskoBay,North
2021-08-19T04:50:00Z,1629348601,2021,4,50,231.2014,231.2014,69.4192,-51.55478,-999.00,-999.00,-999.0,no,no,no,4434724,SPIT,USIABP,ICE-PPR<br>DiskoBay,North
2021-08-19T05:19:58Z,1629350398,2021,5,20,231.2222,231.2222,69.41896,-51.56256,-999.00,-999.00,-999.0,no,no,no,4434724,SPIT,USIABP,ICE-PPR<br>DiskoBay,North
2021-08-19T05:50:03Z,1629352204,2021,5,50,231.2431,231.2431,69.41897,-51.57059,-999.00,-999.00,-999.0,no,no,no,4434724,SPIT,USIABP,ICE-PPR<br>DiskoBay,North
2021-08-19T06:19:00Z,1629353940,2021,6,19,231.2632,231.2632,69.41906,-51.5785,-999.00,-999.00,-999.0,no,no,no,4434724,SPIT,USIABP,ICE-PPR<br>DiskoBay,North
2021-08-19T06:48:57Z,1629355738,2021,6,49,231.284,231.284,69.41915,-51.58631,-999.00,-999.00,-999.0,no,no,no,4434724,SPIT,USIABP,ICE-PPR<br>DiskoBay,North
2021-08-19T07:19:03Z,1629357543,2021,7,19,231.3049,231.3049,69.41928,-51.59464,-999.00,-999.00,-999.0,no,no,no,4434724,SPIT,USIABP,ICE-PPR<br>DiskoBay,North
2021-08-19T07:49:00Z,1629359340,2021,7,49,231.3257,231.3257,69.41942,-51.60291,-999.00,-999.00,-999.0,no,no,no,4434724,SPIT,USIABP,ICE-PPR<br>DiskoBay,North
2021-08-19T08:48:02Z,1629362883,2021,8,48,231.3667,231.3667,69.41997,-51.61996,-999.00,-999.00,-999.0,no,no,no,4434724,SPIT,USIABP,ICE-PPR<br>DiskoBay,North
2021-08-19T09:19:00Z,1629364740,2021,9,19,231.3882,231.3882,69.42036,-51.62866,-999.00,-999.00,-999.0,no,no,no,4434724,SPIT,USIABP,ICE-PPR<br>DiskoBay,North
2021-08-19T09:47:57Z,1629366477,2021,9,48,231.4083,231.4083,69.42083,-51.63715,-999.00,-999.00,-999.0,no,no,no,4434724,SPIT,USIABP,ICE-PPR<br>DiskoBay,North
2021-08-19T10:18:02Z,1629368283,2021,10,18,231.4292,231.4292,69.4213,-51.64573,-999.00,-999.00,-999.0,no,no,no,4434724,SPIT,USIABP,ICE-PPR<br>DiskoBay,North
2021-08-19T10:48:00Z,1629370080,2021,10,48,231.45,231.45,69.42177,-51.65414,-999.00,-999.00,-999.0,no,no,no,4434724,SPIT,USIABP,ICE-PPR<br>DiskoBay,North
2021-08-19T11:17:57Z,1629371877,2021,11,18,231.4708,231.4708,69.42216,-51.66299,-999.00,-999.00,-999.0,no,no,no,4434724,SPIT,USIABP,ICE-PPR<br>DiskoBay,North
2021-08-19T11:48:02Z,1629373683,2021,11,48,231.4917,231.4917,69.42237,-51.672,-999.00,-999.00,-999.0,no,no,no,4434724,SPIT,USIABP,ICE-PPR<br>DiskoBay,North
2021-08-19T12:18:00Z,1629375480,2021,12,18,231.5125,231.5125,69.42252,-51.68146,-999.00,-999.00,-999.0,no,no,no,4434724,SPIT,USIABP,ICE-PPR<br>DiskoBay,North
2021-08-19T12:46:56Z,1629377217,2021,12,47,231.5326,231.5326,69.42242,-51.69064,-999.00,-999.00,-999.0,no,no,no,4434724,SPIT,USIABP,ICE-PPR<br>DiskoBay,North
2021-08-19T13:17:02Z,1629379022,2021,13,17,231.5535,231.5535,69.42222,-51.70004,-999.00,-999.00,-999.0,no,no,no,4434724,SPIT,USIABP,ICE-PPR<br>DiskoBay,North
2021-08-19T13:46:59Z,1629380820,2021,13,47,231.5743,231.5743,69.42196,-51.70871,-999.00,-999.00,-999.0,no,no,no,4434724,SPIT,USIABP,ICE-PPR<br>DiskoBay,North
2021-08-19T14:16:56Z,1629382617,2021,14,17,231.5951,231.5951,69.42166,-51.71729,-999.00,-999.00,-999.0,no,no,no,4434724,SPIT,USIABP,ICE-PPR<br>DiskoBay,North
2021-08-19T14:47:02Z,1629384422,2021,14,47,231.616,231.616,69.42128,-51.7254,-999.00,-999.00,-999.0,no,no,no,4434724,SPIT,USIABP,ICE-PPR<br>DiskoBay,North
2021-08-19T15:16:59Z,1629386220,2021,15,17,231.6368,231.6368,69.42088,-51.7337,-999.00,-999.00,-999.0,no,no,no,4434724,SPIT,USIABP,ICE-PPR<br>DiskoBay,North
2021-08-19T15:46:56Z,1629388017,2021,15,47,231.6576,231.6576,69.42055,-51.74148,-999.00,-999.00,-999.0,no,no,no,4434724,SPIT,USIABP,ICE-PPR<br>DiskoBay,North
2021-08-19T16:17:02Z,1629389822,2021,16,17,231.6785,231.6785,69.42043,-51.74895,-999.00,-999.00,-999.0,no,no,no,4434724,SPIT,USIABP,ICE-PPR<br>DiskoBay,North
2021-08-19T16:46:59Z,1629391620,2021,16,47,231.6993,231.6993,69.4203,-51.75616,-999.00,-999.00,-999.0,no,no,no,4434724,SPIT,USIABP,ICE-PPR<br>DiskoBay,North
2021-08-19T17:15:56Z,1629393356,2021,17,16,231.7194,231.7194,69.42039,-51.76302,-999.00,-999.00,-999.0,no,no,no,4434724,SPIT,USIABP,ICE-PPR<br>DiskoBay,North
2021-08-19T17:46:01Z,1629395162,2021,17,46,231.7403,231.7403,69.42059,-51.76877,-999.00,-999.00,-999.0,no,no,no,4434724,SPIT,USIABP,ICE-PPR<br>DiskoBay,North
2021-08-19T18:16:59Z,1629397020,2021,18,17,231.7618,231.7618,69.42086,-51.77408,-999.00,-999.00,-999.0,no,no,no,4434724,SPIT,USIABP,ICE-PPR<br>DiskoBay,North
2021-08-19T18:45:56Z,1629398756,2021,18,46,231.7819,231.7819,69.42117,-51.77893,-999.00,-999.00,-999.0,no,no,no,4434724,SPIT,USIABP,ICE-PPR<br>DiskoBay,North
2021-08-19T22:16:01Z,1629411362,2021,22,16,231.9278,231.9278,69.4265,-51.80002,-999.00,-999.00,-999.0,no,no,no,4434724,SPIT,USIABP,ICE-PPR<br>DiskoBay,North
2021-08-19T22:44:58Z,1629413099,2021,22,45,231.9479,231.9479,69.42622,-51.80078,-999.00,-999.00,-999.0,no,no,no,4434724,SPIT,USIABP,ICE-PPR<br>DiskoBay,North
2021-08-19T23:15:04Z,1629414904,2021,23,15,231.9688,231.9688,69.42605,-51.80121,-999.00,-999.00,-999.0,no,no,no,4434724,SPIT,USIABP,ICE-PPR<br>DiskoBay,North
2021-08-19T23:45:01Z,1629416701,2021,23,45,231.9896,231.9896,69.42596,-51.80121,-999.00,-999.00,-999.0,no,no,no,4434724,SPIT,USIABP,ICE-PPR<br>DiskoBay,North
2021-08-20T00:15:59Z,1629418559,2021,0,16,232.0111,232.0111,69.42592,-51.80127,-999.00,-999.00,-999.0,no,no,no,4434724,SPIT,USIABP,ICE-PPR<br>DiskoBay,North
2021-08-20T00:44:55Z,1629420296,2021,0,45,232.0312,232.0312,69.42592,-51.8013,-999.00,-999.00,-999.0,no,no,no,4434724,SPIT,USIABP,ICE-PPR<br>DiskoBay,North
2021-08-20T01:15:01Z,1629422101,2021,1,15,232.0521,232.0521,69.42589,-51.80136,-999.00,-999.00,-999.0,no,no,no,4434724,SPIT,USIABP,ICE-PPR<br>DiskoBay,North
2021-08-20T01:44:58Z,1629423899,2021,1,45,232.0729,232.0729,69.42589,-51.80136,-999.00,-999.00,-999.0,no,no,no,4434724,SPIT,USIABP,ICE-PPR<br>DiskoBay,North
2021-08-20T02:15:04Z,1629425704,2021,2,15,232.0938,232.0938,69.4257,-51.80157,-999.00,-999.00,-999.0,no,no,no,4434724,SPIT,USIABP,ICE-PPR<br>DiskoBay,North
2021-08-20T02:45:01Z,1629427501,2021,2,45,232.1146,232.1146,69.42538,-51.80188,-999.00,-999.00,-999.0,no,no,no,4434724,SPIT,USIABP,ICE-PPR<br>DiskoBay,North
2021-08-20T03:14:58Z,1629429299,2021,3,15,232.1354,232.1354,69.42538,-51.80194,-999.00,-999.00,-999.0,no,no,no,4434724,SPIT,USIABP,ICE-PPR<br>DiskoBay,North
2021-08-20T03:44:03Z,1629431044,2021,3,44,232.1556,232.1556,69.42542,-51.80188,-999.00,-999.00,-999.0,no,no,no,4434724,SPIT,USIABP,ICE-PPR<br>DiskoBay,North
2021-08-20T04:14:00Z,1629432841,2021,4,14,232.1764,232.1764,69.42538,-51.80194,-999.00,-999.00,-999.0,no,no,no,4434724,SPIT,USIABP,ICE-PPR<br>DiskoBay,North
2021-08-20T04:43:58Z,1629434638,2021,4,44,232.1972,232.1972,69.42531,-51.80185,-999.00,-999.00,-999.0,no,no,no,4434724,SPIT,USIABP,ICE-PPR<br>DiskoBay,North
2021-08-20T05:14:03Z,1629436444,2021,5,14,232.2181,232.2181,69.42522,-51.80185,-999.00,-999.00,-999.0,no,no,no,4434724,SPIT,USIABP,ICE-PPR<br>DiskoBay,North
2021-08-20T05:44:00Z,1629438241,2021,5,44,232.2389,232.2389,69.42498,-51.80164,-999.00,-999.00,-999.0,no,no,no,4434724,SPIT,USIABP,ICE-PPR<br>DiskoBay,North
2021-08-20T06:12:57Z,1629439978,2021,6,13,232.259,232.259,69.425,-51.80145,-999.00,-999.00,-999.0,no,no,no,4434724,SPIT,USIABP,ICE-PPR<br>DiskoBay,North
2021-08-20T06:43:03Z,1629441783,2021,6,43,232.2799,232.2799,69.42504,-51.80145,-999.00,-999.00,-999.0,no,no,no,4434724,SPIT,USIABP,ICE-PPR<br>DiskoBay,North
2021-08-20T07:14:00Z,1629443641,2021,7,14,232.3014,232.3014,69.42496,-51.80161,-999.00,-999.00,-999.0,no,no,no,4434724,SPIT,USIABP,ICE-PPR<br>DiskoBay,North
2021-08-20T07:42:57Z,1629445378,2021,7,43,232.3215,232.3215,69.42498,-51.80157,-999.00,-999.00,-999.0,no,no,no,4434724,SPIT,USIABP,ICE-PPR<br>DiskoBay,North
2021-08-20T08:13:03Z,1629447183,2021,8,13,232.3424,232.3424,69.42498,-51.80157,-999.00,-999.00,-999.0,no,no,no,4434724,SPIT,USIABP,ICE-PPR<br>DiskoBay,North
2021-08-20T08:43:00Z,1629448980,2021,8,43,232.3632,232.3632,69.42498,-51.80157,-999.00,-999.00,-999.0,no,no,no,4434724,SPIT,USIABP,ICE-PPR<br>DiskoBay,North
2021-08-20T09:43:03Z,1629452583,2021,9,43,232.4049,232.4049,69.42502,-51.80164,-999.00,-999.00,-999.0,no,no,no,4434724,SPIT,USIABP,ICE-PPR<br>DiskoBay,North
2021-08-20T10:13:00Z,1629454380,2021,10,13,232.4257,232.4257,69.42511,-51.80173,-999.00,-999.00,-999.0,no,no,no,4434724,SPIT,USIABP,ICE-PPR<br>DiskoBay,North
2021-08-20T10:42:57Z,1629456178,2021,10,43,232.4465,232.4465,69.42525,-51.80182,-999.00,-999.00,-999.0,no,no,no,4434724,SPIT,USIABP,ICE-PPR<br>DiskoBay,North
2021-08-20T11:13:03Z,1629457983,2021,11,13,232.4674,232.4674,69.42538,-51.80194,-999.00,-999.00,-999.0,no,no,no,4434724,SPIT,USIABP,ICE-PPR<br>DiskoBay,North
2021-08-20T11:42:00Z,1629459720,2021,11,42,232.4875,232.4875,69.42538,-51.80188,-999.00,-999.00,-999.0,no,no,no,4434724,SPIT,USIABP,ICE-PPR<br>DiskoBay,North
2021-08-20T12:11:57Z,1629461517,2021,12,12,232.5083,232.5083,69.42538,-51.80188,-999.00,-999.00,-999.0,no,no,no,4434724,SPIT,USIABP,ICE-PPR<br>DiskoBay,North
2021-08-20T13:41:57Z,1629466917,2021,13,42,232.5708,232.5708,69.42514,-51.80179,-999.00,-999.00,-999.0,no,no,no,4434724,SPIT,USIABP,ICE-PPR<br>DiskoBay,North
2021-08-20T14:12:02Z,1629468723,2021,14,12,232.5917,232.5917,69.42502,-51.80167,-999.00,-999.00,-999.0,no,no,no,4434724,SPIT,USIABP,ICE-PPR<br>DiskoBay,North
2021-08-20T14:42:00Z,1629470520,2021,14,42,232.6125,232.6125,69.42486,-51.80142,-999.00,-999.00,-999.0,no,no,no,4434724,SPIT,USIABP,ICE-PPR<br>DiskoBay,North
2021-08-20T15:10:56Z,1629472257,2021,15,11,232.6326,232.6326,69.42471,-51.80107,-999.00,-999.00,-999.0,no,no,no,4434724,SPIT,USIABP,ICE-PPR<br>DiskoBay,North
2021-08-20T15:41:02Z,1629474062,2021,15,41,232.6535,232.6535,69.42467,-51.8009,-999.00,-999.00,-999.0,no,no,no,4434724,SPIT,USIABP,ICE-PPR<br>DiskoBay,North
2021-08-20T16:12:00Z,1629475920,2021,16,12,232.675,232.675,69.42464,-51.80081,-999.00,-999.00,-999.0,no,no,no,4434724,SPIT,USIABP,ICE-PPR<br>DiskoBay,North
2021-08-20T16:40:56Z,1629477657,2021,16,41,232.6951,232.6951,69.42464,-51.80081,-999.00,-999.00,-999.0,no,no,no,4434724,SPIT,USIABP,ICE-PPR<br>DiskoBay,North
2021-08-20T17:11:02Z,1629479462,2021,17,11,232.716,232.716,69.42467,-51.8009,-999.00,-999.00,-999.0,no,no,no,4434724,SPIT,USIABP,ICE-PPR<br>DiskoBay,North
2021-08-20T17:40:59Z,1629481260,2021,17,41,232.7368,232.7368,69.42467,-51.8009,-999.00,-999.00,-999.0,no,no,no,4434724,SPIT,USIABP,ICE-PPR<br>DiskoBay,North
2021-08-20T18:10:56Z,1629483057,2021,18,11,232.7576,232.7576,69.42467,-51.8009,-999.00,-999.00,-999.0,no,no,no,4434724,SPIT,USIABP,ICE-PPR<br>DiskoBay,North
2021-08-20T18:41:02Z,1629484862,2021,18,41,232.7785,232.7785,69.42467,-51.80093,-999.00,-999.00,-999.0,no,no,no,4434724,SPIT,USIABP,ICE-PPR<br>DiskoBay,North
2021-08-20T19:10:59Z,1629486660,2021,19,11,232.7993,232.7993,69.42469,-51.80093,-999.00,-999.00,-999.0,no,no,no,4434724,SPIT,USIABP,ICE-PPR<br>DiskoBay,North
2021-08-20T19:40:56Z,1629488457,2021,19,41,232.8201,232.8201,69.42469,-51.80093,-999.00,-999.00,-999.0,no,no,no,4434724,SPIT,USIABP,ICE-PPR<br>DiskoBay,North
2021-08-20T20:11:02Z,1629490262,2021,20,11,232.841,232.841,69.42485,-51.8006,-999.00,-999.00,-999.0,no,no,no,4434724,SPIT,USIABP,ICE-PPR<br>DiskoBay,North
2021-08-20T20:40:59Z,1629492060,2021,20,41,232.8618,232.8618,69.42469,-51.80096,-999.00,-999.00,-999.0,no,no,no,4434724,SPIT,USIABP,ICE-PPR<br>DiskoBay,North
2021-08-20T21:09:56Z,1629493796,2021,21,10,232.8819,232.8819,69.42477,-51.8011,-999.00,-999.00,-999.0,no,no,no,4434724,SPIT,USIABP,ICE-PPR<br>DiskoBay,North
2021-08-20T21:40:01Z,1629495602,2021,21,40,232.9028,232.9028,69.42486,-51.80127,-999.00,-999.00,-999.0,no,no,no,4434724,SPIT,USIABP,ICE-PPR<br>DiskoBay,North
2021-08-20T22:09:59Z,1629497399,2021,22,10,232.9236,232.9236,69.42529,-51.80136,-999.00,-999.00,-999.0,no,no,no,4434724,SPIT,USIABP,ICE-PPR<br>DiskoBay,North
2021-08-20T22:39:56Z,1629499196,2021,22,40,232.9444,232.9444,69.42569,-51.80167,-999.00,-999.00,-999.0,no,no,no,4434724,SPIT,USIABP,ICE-PPR<br>DiskoBay,North
